TimeEST,TemperatureF,Dew PointF,Humidity,Sea Level PressureIn,VisibilityMPH,Wind Direction,Wind SpeedMPH,Gust SpeedMPH,PrecipitationIn,Events,Conditions,WindDirDegrees,DateUTC
12:53 AM,39.0,37.0,93,29.99,8.0,Calm,Calm,-,N/A,,Clear,0,2014-01-15 05:53:00
1:53 AM,37.9,36.0,93,29.99,10.0,Calm,Calm,-,N/A,,Clear,0,2014-01-15 06:53:00
2:53 AM,37.0,35.1,93,29.98,10.0,Calm,Calm,-,N/A,,Clear,0,2014-01-15 07:53:00
3:53 AM,36.0,35.1,97,29.98,10.0,Calm,Calm,-,N/A,,Clear,0,2014-01-15 08:53:00
4:53 AM,35.1,34.0,96,29.96,10.0,Calm,Calm,-,N/A,,Clear,0,2014-01-15 09:53:00
5:53 AM,35.1,33.1,92,29.97,10.0,Calm,Calm,-,N/A,,Clear,0,2014-01-15 10:53:00
6:53 AM,34.0,32.0,92,29.98,8.0,Calm,Calm,-,N/A,,Clear,0,2014-01-15 11:53:00
7:53 AM,34.0,33.1,96,29.99,9.0,Calm,Calm,-,N/A,,Clear,0,2014-01-15 12:53:00
8:53 AM,37.0,36.0,96,30.00,9.0,Calm,Calm,-,N/A,,Clear,0,2014-01-15 13:53:00
9:53 AM,45.0,39.9,82,30.01,10.0,Calm,Calm,-,N/A,,Clear,0,2014-01-15 14:53:00
10:53 AM,51.1,-9999,N/A,29.99,10.0,SSW,4.6,-,N/A,,Clear,210,2014-01-15 15:53:00
11:53 AM,57.0,39.0,51,29.95,10.0,South,5.8,-,N/A,,Clear,190,2014-01-15 16:53:00
12:53 PM,63.0,32.0,31,29.90,10.0,SW,11.5,18.4,N/A,,Clear,230,2014-01-15 17:53:00
1:53 PM,63.0,30.0,29,29.86,10.0,SW,13.8,-,N/A,,Clear,230,2014-01-15 18:53:00
2:53 PM,63.0,28.9,28,29.85,10.0,WSW,12.7,19.6,N/A,,Partly Cloudy,240,2014-01-15 19:53:00
3:53 PM,63.0,30.9,30,29.86,10.0,West,11.5,-,N/A,,Clear,260,2014-01-15 20:53:00
4:53 PM,60.1,33.1,36,29.86,10.0,West,9.2,-,N/A,,Clear,280,2014-01-15 21:53:00
5:53 PM,55.9,36.0,47,29.88,10.0,WNW,6.9,-,N/A,,Partly Cloudy,290,2014-01-15 22:53:00
6:53 PM,53.1,33.1,47,29.91,10.0,WNW,11.5,17.3,N/A,,Clear,290,2014-01-15 23:53:00
7:53 PM,51.1,30.0,44,29.92,10.0,NW,6.9,-,N/A,,Partly Cloudy,310,2014-01-16 00:53:00
8:53 PM,50.0,30.9,48,29.94,10.0,NNW,5.8,-,N/A,,Overcast,330,2014-01-16 01:53:00
9:53 PM,48.9,32.0,52,29.95,10.0,WNW,12.7,18.4,0.00,Rain,Light Rain,300,2014-01-16 02:53:00
10:53 PM,48.0,28.9,48,29.96,10.0,WNW,9.2,24.2,0.00,,Overcast,300,2014-01-16 03:53:00
11:53 PM,46.9,28.0,48,29.95,10.0,WNW,8.1,-,N/A,,Overcast,290,2014-01-16 04:53:00